FW2734 Weather Reports


time (UTC)temp
C
wind
direction
speed
KPH
gust
KPH
rain 1hr
cm
rain 24hr
cm
rain mn
cm
humidity
%
barometer
mb
20260504221048 11 0 0.0 1.6 0.00 0.64 0.00 93 1011.7
20260504220548 11 0 0.0 1.6 0.00 0.64 0.00 93 1011.8
20260504220100 11 0 0.0 1.6 0.00 0.64 0.00 93 1011.8
20260504215553 11 0 0.0 1.6 0.00 0.64 0.64 93 1011.8
20260504215049 11 0 0.0 1.6 0.00 0.64 0.64 92 1011.9
20260504214603 11 0 0.0 1.6 0.00 0.64 0.64 92 1012.1
20260504214048 11 0 0.0 1.6 0.00 0.64 0.64 92 1012.1
20260504213551 11 0 0.0 1.6 0.00 0.64 0.64 93 1012.1
20260504213104 11 0 0.0 1.6 0.00 0.64 0.64 92 1012.1
20260504212552 11 91 0.0 0.0 0.00 0.64 0.64 92 1012.2
20260504212055 11 0 0.0 0.0 0.00 0.64 0.64 92 1012.3
20260504211604 11 0 0.0 0.0 0.00 0.64 0.64 92 1012.3
20260504211050 11 0 0.0 0.0 0.00 0.64 0.64 92 1012.3
20260504210554 11 0 0.0 0.0 0.00 0.64 0.64 92 1012.3
20260504205550 11 0 0.0 1.6 0.00 0.64 0.64 92 1012.4
20260504205050 11 0 0.0 1.6 0.00 0.64 0.64 92 1012.4
20260504204556 11 75 0.0 1.6 0.00 0.64 0.64 92 1012.4
20260504204048 11 0 0.0 4.8 0.00 0.64 0.64 92 1012.4
20260504203548 11 0 0.0 4.8 0.00 0.64 0.64 92 1012.4
20260504203056 11 116 0.0 4.8 0.00 0.64 0.64 92 1012.4
20260504202548 11 0 0.0 3.2 0.00 0.64 0.64 92 1012.4
20260504202053 11 82 0.0 3.2 0.00 0.64 0.64 92 1012.5
20260504201610 11 112 0.0 3.2 0.00 0.64 0.64 92 1012.5
20260504201050 11 0 0.0 3.2 0.00 0.64 0.64 92 1012.4
20260504200551 11 170 0.0 3.2 0.00 0.64 0.64 92 1012.5
20260504195551 11 158 0.0 3.2 0.00 0.64 0.64 92 1012.4
20260504195052 11 0 0.0 3.2 0.00 0.64 0.64 92 1012.4
20260504194555 11 169 0.0 3.2 0.00 0.64 0.64 92 1012.3
20260504194049 11 113 0.0 3.2 0.00 0.64 0.64 92 1012.4
20260504193551 11 99 0.0 3.2 0.00 0.64 0.64 92 1012.3
20260504193103 11 0 0.0 3.2 0.00 0.64 0.64 92 1012.3
20260504192548 11 0 0.0 3.2 0.00 0.64 0.64 92 1012.3
20260504192051 11 0 0.0 3.2 0.00 0.64 0.64 92 1012.3
20260504191610 11 124 0.0 3.2 0.00 0.64 0.64 92 1012.2
20260504191048 11 96 0.0 3.2 0.00 0.64 0.64 92 1012.2
20260504190554 11 98 0.0 3.2 0.00 0.64 0.64 92 1012.1
20260504190100 11 0 0.0 3.2 0.00 0.64 0.64 92 1012.1
20260504185551 11 66 0.0 3.2 0.00 0.64 0.64 92 1012.1
20260504185050 11 0 0.0 3.2 0.00 0.64 0.64 92 1012.1
20260504184553 11 65 0.0 3.2 0.00 0.64 0.64 92 1012.1
20260504184052 11 0 0.0 4.8 0.00 0.64 0.64 92 1012.1
20260504183552 11 0 0.0 4.8 0.00 0.64 0.64 92 1012.1
20260504183050 11 78 0.0 4.8 0.00 0.64 0.64 92 1012.2
20260504182552 11 97 1.6 4.8 0.00 0.64 0.64 92 1012.2
20260504182051 11 75 0.0 3.2 0.00 0.64 0.64 92 1012.2
20260504181556 11 64 0.0 3.2 0.00 0.64 0.64 92 1012.2
20260504181051 11 77 0.0 3.2 0.00 0.64 0.64 92 1012.2
20260504180549 11 95 0.0 6.4 0.00 0.64 0.64 92 1012.2
20260504180055 11 95 1.6 6.4 0.00 0.64 0.64 92 1012.2
20260504175551 11 89 1.6 4.8 0.00 0.64 0.64 92 1012.3
20260504175048 11 68 1.6 3.2 0.00 0.64 0.64 92 1012.3
20260504174556 11 87 0.0 3.2 0.00 0.64 0.64 91 1012.2
20260504174051 11 42 0.0 4.8 0.00 0.64 0.64 91 1012.3
20260504173547 11 58 1.6 4.8 0.00 0.64 0.64 91 1012.4
20260504173058 11 51 0.0 4.8 0.03 0.64 0.64 91 1012.4
20260504172550 11 122 1.6 4.8 0.03 0.64 0.64 91 1012.4
20260504172050 11 144 0.0 3.2 0.03 0.64 0.64 91 1012.5
20260504171552 11 0 0.0 4.8 0.05 0.64 0.64 91 1012.5
20260504171052 11 169 0.0 4.8 0.05 0.64 0.64 91 1012.6
20260504170552 11 0 1.6 4.8 0.05 0.64 0.64 91 1012.7
20260504151051 12 134 3.2 8.0 0.08 0.48 0.48 89 1013.1
20260504150554 12 0 1.6 4.8 0.08 0.48 0.48 90 1013.0
20260504141051 12 153 1.6 6.4 0.03 0.41 0.41 87 1013.4
20260504140551 12 165 0.0 9.7 0.05 0.41 0.41 87 1013.4
20260504130553 13 193 3.2 6.4 0.00 0.36 0.36 84 1013.7
20260504120132 12 224 3.2 11.3 0.08 0.36 0.36 87 1013.8
20260504110554 12 184 3.2 8.0 0.25 0.28 0.28 90 1014.4
20260504100552 13 205 6.4 12.9 0.00 0.00 0.00 85 1014.1
20260504081554 13 0 0.0 3.2 0.00 0.00 0.00 80 1013.5
20260504081052 13 215 0.0 4.8 0.00 0.00 0.00 80 1013.6
20260504080552 13 0 0.0 4.8 0.00 0.00 0.00 81 1013.6
20260504050551 8 189 3.2 9.7 0.00 0.00 0.00 93 1013.0
20260504045553 7 0 0.0 4.8 0.00 0.00 0.00 92 1012.9
20260504045047 7 0 0.0 4.8 0.00 0.00 0.00 92 1012.9
20260504044554 7 0 1.6 4.8 0.00 0.00 0.00 92 1012.7
20260504044050 7 169 1.6 6.4 0.00 0.00 0.00 92 1012.7
20260504043550 7 155 1.6 8.0 0.00 0.00 0.00 92 1012.7
20260504043112 7 168 3.2 8.0 0.00 0.00 0.00 92 1012.7
20260504042550 7 175 4.8 8.0 0.00 0.00 0.00 92 1012.7
20260504042052 6 165 0.0 3.2 0.00 0.00 0.00 92 1012.7
20260504041549 6 0 0.0 0.0 0.00 0.00 0.00 92 1012.6
20260504041050 6 0 0.0 0.0 0.00 0.00 0.00 92 1012.6
20260504040553 6 0 0.0 0.0 0.00 0.00 0.00 92 1012.7
20260504040051 6 0 0.0 4.8 0.00 0.00 0.00 92 1012.7
20260504035553 7 0 0.0 6.4 0.00 0.00 0.00 91 1012.6
20260504035050 7 167 1.6 6.4 0.00 0.00 0.00 92 1012.7
20260504034554 7 171 3.2 4.8 0.00 0.00 0.00 92 1012.6
20260504034053 6 162 0.0 1.6 0.00 0.00 0.00 92 1012.7
20260504033550 6 0 0.0 3.2 0.00 0.00 0.00 91 1012.7
20260504033052 6 0 0.0 3.2 0.00 0.00 0.00 92 1012.7
20260504032550 6 0 0.0 0.0 0.00 0.00 0.00 91 1012.5
20260504032050 6 0 0.0 0.0 0.00 0.00 0.00 91 1012.5
20260504031556 6 0 0.0 0.0 0.00 0.00 0.00 91 1012.5
20260504031050 6 0 0.0 0.0 0.00 0.00 0.00 91 1012.6
20260504030550 6 0 0.0 0.0 0.00 0.00 0.00 91 1012.7
20260504030109 6 0 0.0 0.0 0.00 0.00 0.00 91 1012.7
20260504025550 6 0 0.0 0.0 0.00 0.00 0.00 91 1012.8
20260504025050 6 0 0.0 0.0 0.00 0.00 0.00 91 1012.8
20260504024553 6 0 0.0 0.0 0.00 0.00 0.00 91 1012.7
20260504024050 6 0 0.0 0.0 0.00 0.00 0.00 91 1012.9
20260504023550 6 0 0.0 0.0 0.00 0.00 0.00 91 1012.8
20260504023057 6 0 0.0 0.0 0.00 0.00 0.00 91 1012.9
20260504022551 6 0 0.0 0.0 0.00 0.00 0.00 91 1012.9
20260504022054 6 0 0.0 1.6 0.00 0.00 0.00 91 1012.9
20260504021552 6 0 0.0 3.2 0.00 0.00 0.00 91 1012.9
20260504021051 6 0 0.0 3.2 0.00 0.00 0.00 91 1012.9
20260504020552 6 0 0.0 4.8 0.00 0.00 0.00 90 1012.9
20260504020057 6 0 0.0 4.8 0.00 0.00 0.00 91 1013.0
20260504015549 7 163 1.6 3.2 0.00 0.00 0.00 91 1013.0
20260504015048 7 0 0.0 1.6 0.00 0.00 0.00 91 1013.1
20260504014554 7 0 0.0 0.0 0.00 0.00 0.00 90 1013.1
20260504014048 7 0 0.0 0.0 0.00 0.00 0.00 90 1013.0
20260504013554 7 0 0.0 0.0 0.00 0.00 0.00 91 1013.1
20260504013053 7 0 0.0 0.0 0.00 0.00 0.00 91 1013.1
20260504012548 7 0 0.0 0.0 0.00 0.00 0.00 90 1013.0
20260504012048 7 0 0.0 0.0 0.00 0.00 0.00 90 1013.0
20260504011553 7 0 0.0 0.0 0.00 0.00 0.00 90 1012.9
20260504011050 7 0 0.0 0.0 0.00 0.00 0.00 90 1013.0
20260504010550 7 0 0.0 3.2 0.00 0.00 0.00 90 1013.1
20260504010059 7 0 0.0 3.2 0.00 0.00 0.00 90 1013.1
20260504005550 8 0 0.0 3.2 0.00 0.00 0.00 90 1013.1
20260504005050 8 260 0.0 3.2 0.00 0.00 0.00 90 1013.1
20260504004551 8 269 0.0 3.2 0.00 0.00 0.00 90 1013.2
20260504004051 8 0 0.0 1.6 0.00 0.00 0.00 90 1013.1
20260504003550 7 0 0.0 6.4 0.00 0.00 0.00 90 1013.1
20260504003050 7 150 0.0 6.4 0.00 0.00 0.00 90 1013.0
20260504002550 7 172 3.2 6.4 0.00 0.00 0.00 90 1012.9
20260504002050 8 165 0.0 4.8 0.00 0.00 0.00 90 1012.9
20260504001558 8 0 0.0 1.6 0.00 0.00 0.00 90 1013.0
20260504001050 8 0 0.0 0.0 0.00 0.00 0.00 90 1013.1
20260504000549 8 0 0.0 0.0 0.00 0.00 0.00 89 1013.0
20260504000058 8 0 0.0 0.0 0.00 0.00 0.00 89 1013.0
20260503235549 8 0 0.0 0.0 0.00 0.00 0.00 89 1013.0
20260503235050 8 0 0.0 0.0 0.00 0.00 0.00 89 1013.0
20260503234553 8 0 0.0 0.0 0.00 0.00 0.00 89 1013.0
20260503234051 8 0 0.0 0.0 0.00 0.00 0.00 89 1013.0
20260503233550 8 0 0.0 0.0 0.00 0.00 0.00 89 1012.9
20260503233053 8 0 0.0 0.0 0.00 0.00 0.00 89 1012.9
20260503232555 8 0 0.0 0.0 0.00 0.00 0.00 89 1012.9
20260503232051 8 0 0.0 0.0 0.00 0.00 0.00 89 1013.0
20260503231555 8 0 0.0 0.0 0.00 0.00 0.00 89 1012.9
20260503231052 8 0 0.0 0.0 0.00 0.00 0.00 89 1012.9
20260503230552 8 0 0.0 1.6 0.00 0.00 0.00 89 1013.0
20260503230110 8 0 0.0 1.6 0.00 0.00 0.00 89 1013.1
20260503225552 8 0 0.0 3.2 0.00 0.00 0.00 89 1013.2
20260503225052 8 0 0.0 3.2 0.00 0.00 0.00 89 1013.3
20260503224607 8 0 1.6 3.2 0.00 0.00 0.00 89 1013.3
20260503224052 8 179 0.0 0.0 0.00 0.00 0.00 89 1013.2
20260503223552 8 0 0.0 0.0 0.00 0.00 0.00 88 1013.2
20260503223113 8 0 0.0 0.0 0.00 0.00 0.00 88 1013.2
20260503222551 8 0 0.0 0.0 0.00 0.00 0.00 88 1013.2
20260503222051 8 0 0.0 0.0 0.00 0.00 0.00 88 1013.2
20260503221556 8 0 0.0 0.0 0.00 0.00 0.00 88 1013.1